Weather History for KLNR - January, 2013

Change the Weather History Date:

Tuesday, January 8, 2013

  Actual Average Record
Temperature  
Mean Temperature 24 °F -  
Max Temperature 39 °F 25 °F 54 °F (2003)
Min Temperature 10 °F 11 °F -18 °F (2014)
Degree Days  
Heating Degree Days 40    
Moisture  
Dew Point 17 °F    
Average Humidity 83    
Maximum Humidity 93    
Minimum Humidity 65    
Precipitation  
Precipitation 0.00 in - - ()
Sea Level Pressure  
Sea Level Pressure 30.03 in    
Wind  
Wind Speed 3 mph (ESE)    
Max Wind Speed 16 mph    
Max Gust Speed 23 mph    
Visibility 4 miles    
Events Fog    
Averages and records for this station are not official NWS values.
T = Trace of Precipitation, MM = Missing Value Source: NWS Daily Summary

Daily Weather History Graph

Daily Weather History Graph

Search for Another Location

Airport or City:

Trip Planner

Search our weather history database for the weather conditions in past years. The results will help you decide how hot, cold, wet, or windy it might be!

Date:

Astronomy

Jan. 08, 2013 Rise Set
Actual Time 7:32 AM CST 4:43 PM CST
Civil Twilight 7:00 AM CST 5:15 PM CST
Nautical Twilight 6:24 AM CST 5:50 PM CST
Astronomical Twilight 5:50 AM CST 6:25 PM CST
Moon 4:04 AM CST (1/8) 1:45 PM CST (1/8)
Length of Visible Light 10h 15m
Length of Day
9h 11m
Waning Crescent, 13% of the Moon is Illuminated
Jan 8
Waning Crescent
Jan 11
New
Jan 18
First Quarter
Jan 26
Full
Feb 3
Last Quarter

Hourly Weather History & Observations

Time (CST) Temp. Windchill Dew Point Humidity Pressure Visibility Wind Dir Wind Speed Gust Speed Precip Events Conditions
12:56 AM 19.9 °F - 16.0 °F 85% 30.05 in 7.0 mi Calm Calm - N/A   Clear
1:56 AM 17.1 °F 11.7 °F 14.0 °F 88% 30.06 in 5.0 mi NE 3.5 mph - N/A   Clear
2:56 AM 17.1 °F 11.7 °F 15.1 °F 92% 30.06 in 5.0 mi NE 3.5 mph - N/A   Clear
3:56 AM 14.0 °F - 10.9 °F 88% 30.06 in 4.0 mi Calm Calm - N/A   Clear
4:34 AM 12.2 °F 4.3 °F 8.6 °F 85% 30.04 in 4.0 mi East 4.6 mph - N/A   Scattered Clouds
4:47 AM 10.4 °F 4.0 °F 8.6 °F 92% 30.04 in 1.2 mi ESE 3.5 mph - N/A   Mostly Cloudy
4:54 AM 14.0 °F - 10.4 °F 86% 30.04 in 3.0 mi Calm Calm - N/A   Scattered Clouds
4:56 AM 12.9 °F - 10.0 °F 88% 30.06 in 3.0 mi Calm Calm - N/A   Scattered Clouds
5:15 AM 14.0 °F 6.5 °F 10.4 °F 86% 30.04 in 1.8 mi ENE 4.6 mph - N/A   Scattered Clouds
5:25 AM 12.2 °F 6.1 °F 10.4 °F 92% 30.04 in 1.0 mi East 3.5 mph - N/A   Mist
5:27 AM 12.2 °F - 10.4 °F 92% 30.05 in 0.5 mi Calm Calm - N/A Fog Light Freezing Fog
5:37 AM 14.0 °F - 10.4 °F 86% 30.05 in 0.2 mi Calm Calm - N/A Fog Light Freezing Fog
5:56 AM 14.0 °F 8.2 °F 10.9 °F 88% 30.07 in 0.2 mi NE 3.5 mph - N/A Fog Light Freezing Fog
6:16 AM 10.4 °F 4.0 °F 8.6 °F 92% 30.05 in 0.2 mi ESE 3.5 mph - N/A Fog Light Freezing Fog
6:56 AM 10.0 °F 3.6 °F 7.0 °F 87% 30.08 in 0.2 mi NNE 3.5 mph - N/A Fog Light Freezing Fog
7:11 AM 12.2 °F - 8.6 °F 85% 30.06 in 1.0 mi Calm Calm - N/A   Mist
7:32 AM 12.2 °F - 8.6 °F 85% 30.06 in 0.2 mi Calm Calm - N/A Fog Light Freezing Fog
7:54 AM 10.4 °F - 8.6 °F 92% 30.07 in 1.0 mi Calm Calm - N/A   Mist
7:56 AM 10.9 °F - 8.1 °F 88% 30.09 in 1.2 mi Calm Calm - N/A   Scattered Clouds
8:05 AM 10.4 °F 2.2 °F 6.8 °F 85% 30.07 in 0.2 mi NE 4.6 mph - N/A Fog Light Freezing Fog
8:12 AM 12.2 °F 6.1 °F 8.6 °F 85% 30.07 in 0.2 mi ENE 3.5 mph - N/A Fog Light Freezing Fog
8:27 AM 12.2 °F 6.1 °F 10.4 °F 92% 30.06 in 0.2 mi ENE 3.5 mph - N/A Fog Light Freezing Fog
8:50 AM 15.8 °F - 14.0 °F 93% 30.06 in 1.0 mi Calm Calm - N/A   Mist
8:51 AM 16.0 °F - 14.0 °F 92% 30.08 in 1.0 mi Calm Calm - N/A   Mist
9:41 AM 19.4 °F - 15.8 °F 86% 30.06 in 2.5 mi Calm Calm - N/A   Clear
9:56 AM 19.9 °F - 17.1 °F 89% 30.08 in 2.5 mi Calm Calm - N/A   Clear
10:31 AM 21.2 °F - 19.4 °F 93% 30.05 in 3.0 mi Calm Calm - N/A   Clear
10:56 AM 25.0 °F - 21.9 °F 88% 30.06 in 4.0 mi Calm Calm - N/A   Clear
11:56 AM 28.9 °F 21.9 °F 24.1 °F 82% 30.03 in 5.0 mi East 6.9 mph - N/A   Haze
12:56 PM 33.1 °F - 26.1 °F 75% 30.01 in 6.0 mi Calm Calm - N/A   Haze
1:56 PM 37.0 °F 31.6 °F 27.0 °F 67% 29.99 in 7.0 mi SSE 6.9 mph - N/A   Clear
2:56 PM 36.0 °F 30.3 °F 27.0 °F 70% 29.98 in 7.0 mi SE 6.9 mph - N/A   Clear
3:56 PM 36.0 °F 31.1 °F 27.0 °F 70% 29.96 in 7.0 mi SE 5.8 mph - N/A   Clear
4:56 PM 35.1 °F 30.1 °F 27.0 °F 72% 29.95 in 7.0 mi ESE 5.8 mph - N/A   Clear
5:56 PM 28.9 °F 23.9 °F 24.1 °F 82% 29.94 in 7.0 mi ESE 4.6 mph - N/A   Clear
6:56 PM 37.0 °F 29.3 °F 28.9 °F 73% 29.96 in 8.0 mi SSW 11.5 mph - N/A   Mostly Cloudy
7:56 PM 37.0 °F 29.3 °F 28.9 °F 73% 29.95 in 9.0 mi South 11.5 mph - N/A   Partly Cloudy
8:56 PM 37.9 °F 30.5 °F 28.9 °F 70% 29.93 in 10.0 mi South 11.5 mph 23.0 mph N/A   Mostly Cloudy
9:56 PM 39.9 °F 31.4 °F 28.9 °F 65% 29.93 in 10.0 mi SSW 16.1 mph 23.0 mph N/A   Overcast
10:56 PM 39.9 °F 33.9 °F 28.9 °F 65% 29.92 in 10.0 mi SW 9.2 mph - N/A   Scattered Clouds
11:56 PM 39.0 °F 32.3 °F 30.0 °F 70% 29.93 in 10.0 mi WSW 10.4 mph - N/A   Mostly Cloudy